Regional Weather Roundup
Issued by NWS San Angelo, TX

Home | Current Version | Previous Version | Text Only | Print | Product List | Glossary On
Versions: 1 2 3 4 5 6 7 8 9 10 11 12 13 14 15 16 17 18 19 20 21 22 23 24 25 26 27 28 29 30 31 32 33 34 35 36 37 38 39 40 41 42 43 44 45 46 47 48 49 50
000
ASUS44 KSJT 291002
RWRSJT
WEST CENTRAL TEXAS REGIONAL WEATHER ROUNDUP
NATIONAL WEATHER SERVICE SAN ANGELO TX
500 AM CDT SUN MAR 29 2015

NOTE: "FAIR" INDICATES FEW OR NO CLOUDS BELOW 12,000 FEET WITH NO
SIGNIFICANT WEATHER AND/OR OBSTRUCTIONS TO VISIBILITY.

TXZ049-054-064>066-071>073-076>078-098-099-113-114-127-128-139-140-
154-155-168>170-291100
...LOCATIONS ACROSS WEST CENTRAL TEXAS...

CITY           SKY/WX    TMP DP  RH WIND       PRES   REMARKS
SAN ANGELO     CLEAR     60  40  47 S7        29.97F
ABILENE        CLEAR     66  38  35 S13       29.96S
DYESS AFB      CLEAR     65  42  43 S16       29.93S
JUNCTION       CLEAR     58  42  55 CALM      30.02F
SWEETWATER     NOT AVBL
BROWNWOOD      NOT AVBL
COLEMAN        NOT AVBL
SONORA         NOT AVBL
OZONA          NOT AVBL
BRADY          CLEAR     64  45  48 S12       30.00S
$$

TEXAS PANHANDLE/OKLAHOMA PANHANDLE

CITY           SKY/WX    TMP DP  RH WIND       PRES   REMARKS
AMARILLO       CLEAR     50  38  63 S14       29.97F
BORGER         CLEAR     57  39  51 W10       29.94R
CANADIAN       CLEAR     57  48  71 SW10      29.89S
DALHART        CLEAR     45  29  53 W8        29.98R
DUMAS          SUNNY     56  32  41 SW18      29.95F
GUYMON         NOT AVBL
HEREFORD       NOT AVBL
PAMPA          NOT AVBL
PERRYTON       NOT AVBL
$$

SOUTHERN PANHANDLE/SOUTH PLAINS/ROLLING PLAINS

CITY           SKY/WX    TMP DP  RH WIND       PRES   REMARKS
LUBBOCK        CLEAR     57  33  40 SW13      29.96F
SNYDER         NOT AVBL
CHILDRESS      CLEAR     51  44  77 CALM      29.91F
SEMINOLE       NOT AVBL
$$

PERMIAN BASIN

CITY           SKY/WX    TMP DP  RH WIND       PRES   REMARKS
MIDLAND        CLEAR     58  39  49 S7        29.98F
ODESSA         CLEAR     59  37  44 S8        29.99F
WINK           CLEAR     49  39  68 SE8       29.97S
$$

FAR WEST/SOUTHWEST MOUNTAINS/TRANS PECOS

CITY           SKY/WX    TMP DP  RH WIND       PRES   REMARKS
ALPINE         NOT AVBL
DRYDEN           N/A     57  43  59 N9        30.00S
EL PASO        CLEAR     68   6   9 E9        30.08S
FORT STOCKTON  CLEAR     62  27  26 SW14      30.00F
GUADALUPE PASS CLEAR     60   8  12 S10       30.16F
MARFA          CLEAR     39  27  60 NW3       30.17S
PECOS          NOT AVBL
$$

DALLAS/FORT WORTH METROPLEX

CITY           SKY/WX    TMP DP  RH WIND       PRES   REMARKS
DFW AIRPORT    CLEAR     56  46  69 SE7       29.99S
FTW MEACHAM    CLEAR     58  47  66 E9        29.98S
DAL-EXECUTIVE  CLEAR     56  46  69 SE8       30.00S
GRAND PRAIRIE  NOT AVBL
ADDISON        NOT AVBL
MESQUITE       SUNNY     58  46  63 SE10      30.02S
LANCASTER      SUNNY     52  44  74 SE5       30.02S
$$

NORTH CENTRAL TEXAS

CITY           SKY/WX    TMP DP  RH WIND       PRES   REMARKS
SHRMAN/DENISON NOT AVBL
GAINESVILLE    NOT AVBL
BRIDGEPORT     SUNNY     53  47  80 CALM      29.98S
DENTON         CLEAR     59  46  62 SE8       29.99S
WAXAHACHIE     SUNNY     55  47  76 SE8       30.02S
GRANBURY       NOT AVBL
$$

WESTERN NORTH TEXAS

CITY           SKY/WX    TMP DP  RH WIND       PRES   REMARKS
WICHITA FALLS  CLEAR     54  45  71 S3        29.92S
VERNON         NOT AVBL
BRECKENRIDGE   NOT AVBL
COMANCHE       CLEAR     64  43  46 SW12G18   29.97S
$$

CENTRAL AND SOUTH CENTRAL TEXAS

CITY           SKY/WX    TMP DP  RH WIND       PRES   REMARKS
AUSTIN/BERGSTM CLEAR     57  53  86 S9        30.04F
WACO           CLEAR     53  48  83 SE8       30.01S
HILLSBORO      NOT AVBL
TEMPLE         CLEAR     55  46  71 S13       30.00F
KILLEEN-GRAY   CLEAR     62  48  60 S13G21    29.99F
FORT HOOD      CLEAR     61  48  63 S8        30.00S
GEORGETOWN     CLEAR     61  45  55 S9        30.02S
LAGO VISTA     FAIR      63  44  50 SW13G21   30.03F
SAN MARCOS     CLEAR     54  50  87 SW8       30.07F
NEW BRAUNFELS  CLEAR     55  52  89 SW7       30.05F
RANDOLPH AFB   CLEAR     56  54  92 SW6       30.07S
SAN ANTONIO    CLEAR     58  53  84 S6        30.07S
STINSON        CLEAR     53  50  89 CALM      30.06S
PLEASANTON     NOT AVBL
LA GRANGE      NOT AVBL
GIDDINGS       NOT AVBL
$$

EAST TEXAS

CITY           SKY/WX    TMP DP  RH WIND       PRES   REMARKS
PARIS          NOT AVBL
CLARKSVILLE    NOT AVBL
TYLER          CLEAR     54  44  69 SE7       30.07F
LONGVIEW       CLEAR     50  44  80 E5        30.09S
PALESTINE      SUNNY     58  50  74 SE5       30.08S
NACOGDOCHES    MOCLDY    54  52  94 SE5       30.11R
$$

TEXAS HILL COUNTRY AND EDWARDS PLATEAU

CITY           SKY/WX    TMP DP  RH WIND       PRES   REMARKS
LLANO          NOT AVBL
HORSESHOE BAY  FAIR      62  47  58 S7        30.02S
KERRVILLE      NOT AVBL
FREDERICKSBRG  NOT AVBL
ROCKSPRINGS    NOT AVBL
HONDO          CLEAR     50  46  86 E7        30.07F
UVALDE         SUNNY     51  46  80 NE8       30.05F
DEL RIO        CLEAR     60  45  57 E10       29.99F
$$

SOUTHEAST TEXAS

CITY           SKY/WX    TMP DP  RH WIND       PRES   REMARKS
COLLEGE STN    CLEAR     54  51  90 SE6       30.08R
CALDWELL       NOT AVBL
CROCKETT       SUNNY     57  54  88 S5        30.11S
BRENHAM        NOT AVBL
HUNTSVILLE     CLEAR     61  58  90 S10       30.08S
CONROE         CLOUDY    51  49  92 CALM      30.11S FOG
HOUSTON BUSH   CLEAR     59  58  96 SE5       30.10S
HOUSTON HOBBY  CLEAR     60  59  96 CALM      30.10S
PERLAND        CLEAR     61  59  93 SE5       30.12S
WHARTON        NOT AVBL
$$

THE UPPER TEXAS COAST

CITY           SKY/WX    TMP DP  RH WIND       PRES   REMARKS
ORANGE         NOT AVBL
PORT ARTHUR    CLEAR     61  60  97 S6        30.13S
GALVESTON      CLEAR     64  63  96 S7        30.13S
ANGLETON       CLEAR     58  58 100 S7        30.10S
BAY CITY       SUNNY     60  60 100 S3        30.10S
$$

TEXAS COASTAL BEND, RIO GRANDE PLAINS DEEP SOUTH TEXAS

CITY           SKY/WX    TMP DP  RH WIND       PRES   REMARKS
VICTORIA       CLEAR     61  60  97 S7        30.08S
BEEVILLE       FAIR      60  60 100 S8        30.06F
ROCKPORT       CLEAR     66  60  81 S8G18     30.08R
PORT ARANSAS   NOT AVBL
PORT LAVACA    NOT AVBL
CORPUS CHRISTI CLEAR     62  59  90 S12       30.07S
KINGSVILLE NAS CLEAR     62  61  96 S9        30.06S
COTULLA        CLEAR     57  50  77 SE6       30.04S
LAREDO         CLEAR     61  55  80 SE13      30.03F
BROWNSVILLE    CLEAR     64  61  90 S12       30.08F
PORT ISABEL    CLEAR     64  60  87 S8        30.08S
HEBBRONVILLE   NOT AVBL
MCALLEN        CLEAR     65  60  84 S13       30.06F
WESLACO        NOT AVBL
FALFURRIAS     NOT AVBL
EDINBURG       SUNNY     65  60  82 S9        30.07S
$$


USA.gov is the U.S. government's official web portal to all federal, state and local government web resources and services.